BAW496 EGLL-LEPA

Flight info

Callsign BAW496
Flight time N/A
Altitude 35000
Route MODMI M185 MID L151 SITET UN859 SOPIL DCT BALAN DCT EVPOK DCT NARAK DCT GAI DCT LOMRA DCT ROCAN DCT IBRAP N13 LORES
Aircraft A20N/M-SDE2E3FGHIRWXY/LB1

Departure

Time N/A
Airport London Heathrow Airport (EGLL)

Arrival

Time 2026-05-06 12:53
Airport Palma de Mallorca Airport (LEPA)
Time Latitude Longitude Altitude Speed Heading
2026-05-06 11:46 46.37967 1.07888 38916 ft 450 kts 168°
2026-05-06 11:46 46.31847 1.09938 38912 ft 450 kts 168°
2026-05-06 11:47 46.25769 1.11960 38914 ft 450 kts 168°
2026-05-06 11:47 46.19667 1.13984 38910 ft 450 kts 168°
2026-05-06 11:48 46.13561 1.16007 38910 ft 450 kts 169°
2026-05-06 11:48 46.07461 1.18023 38910 ft 450 kts 169°
2026-05-06 11:49 46.01353 1.20037 38915 ft 449 kts 169°
2026-05-06 11:49 45.95292 1.22031 38912 ft 449 kts 169°
2026-05-06 11:50 45.89206 1.24029 38911 ft 447 kts 169°
2026-05-06 11:50 45.83132 1.26017 38912 ft 448 kts 169°
2026-05-06 11:51 45.77054 1.28003 38911 ft 448 kts 169°
2026-05-06 11:51 45.70971 1.29987 38912 ft 448 kts 169°
2026-05-06 11:52 45.64902 1.31961 38916 ft 448 kts 169°
2026-05-06 11:52 45.58824 1.33933 38916 ft 448 kts 169°
2026-05-06 11:53 45.52741 1.35905 38921 ft 448 kts 169°
2026-05-06 11:53 45.46662 1.37869 38922 ft 448 kts 169°
2026-05-06 11:54 45.40618 1.39816 38925 ft 448 kts 169°
2026-05-06 11:54 45.34528 1.41776 38931 ft 448 kts 169°
2026-05-06 11:55 45.28441 1.43730 38933 ft 448 kts 169°
2026-05-06 11:55 45.22354 1.45680 38939 ft 448 kts 169°
2026-05-06 11:56 45.16298 1.47615 38934 ft 448 kts 170°
2026-05-06 11:56 45.10211 1.49557 38940 ft 449 kts 170°
2026-05-06 11:57 45.04117 1.51495 38938 ft 448 kts 170°
2026-05-06 11:57 44.98051 1.53422 38945 ft 448 kts 170°
2026-05-06 11:58 44.91978 1.55347 38942 ft 447 kts 170°
2026-05-06 11:58 44.85900 1.57267 38939 ft 447 kts 170°
2026-05-06 11:59 44.79825 1.59183 38943 ft 447 kts 170°
2026-05-06 11:59 44.73749 1.61095 38938 ft 447 kts 170°
2026-05-06 12:00 44.67676 1.63003 38956 ft 447 kts 170°
2026-05-06 12:00 44.61638 1.64895 38953 ft 447 kts 170°
2026-05-06 12:01 44.55558 1.66797 38954 ft 447 kts 171°
2026-05-06 12:01 44.49485 1.68691 38957 ft 447 kts 171°
2026-05-06 12:02 44.43409 1.70583 38960 ft 447 kts 171°
2026-05-06 12:02 44.37335 1.72471 38961 ft 447 kts 171°
2026-05-06 12:03 44.31267 1.74353 38966 ft 447 kts 171°
2026-05-06 12:03 44.25201 1.75864 38964 ft 445 kts 174°
2026-05-06 12:04 44.19079 1.77208 38968 ft 445 kts 174°
2026-05-06 12:04 44.12964 1.78556 38968 ft 445 kts 174°
2026-05-06 12:05 44.06867 1.79900 38971 ft 444 kts 174°
2026-05-06 12:05 44.00733 1.81249 38957 ft 444 kts 174°
2026-05-06 12:06 43.94625 1.82502 38967 ft 442 kts 178°
2026-05-06 12:06 43.88531 1.83104 38965 ft 441 kts 180°
2026-05-06 12:07 43.82411 1.83816 38973 ft 443 kts 174°
2026-05-06 12:07 43.76310 1.85139 38967 ft 443 kts 175°
2026-05-06 12:08 43.70219 1.86457 38967 ft 443 kts 175°
2026-05-06 12:08 43.64125 1.87770 38968 ft 443 kts 175°
2026-05-06 12:09 43.58031 1.89079 38972 ft 443 kts 175°
2026-05-06 12:09 43.51942 1.90384 38973 ft 443 kts 175°
2026-05-06 12:10 43.45865 1.91685 38967 ft 439 kts 175°
2026-05-06 12:10 43.39825 1.92975 38953 ft 439 kts 175°
2026-05-06 12:11 43.33796 1.94260 38955 ft 438 kts 175°
2026-05-06 12:11 43.27773 1.95539 38957 ft 438 kts 176°
2026-05-06 12:12 43.21751 1.96816 38956 ft 437 kts 176°
2026-05-06 12:12 43.15767 1.98085 38957 ft 438 kts 176°
2026-05-06 12:13 43.09748 1.99355 38958 ft 438 kts 176°
2026-05-06 12:13 43.03781 2.00614 38956 ft 438 kts 176°
2026-05-06 12:14 42.97681 2.01899 38948 ft 438 kts 176°
2026-05-06 12:14 42.91652 2.03166 38950 ft 439 kts 176°
2026-05-06 12:15 42.85625 2.04429 38948 ft 438 kts 176°
2026-05-06 12:15 42.79589 2.05693 38949 ft 438 kts 176°
2026-05-06 12:16 42.74570 2.06741 38944 ft 439 kts 176°
2026-05-06 12:16 42.67751 2.08162 38935 ft 439 kts 176°
2026-05-06 12:17 42.61713 2.09418 38940 ft 439 kts 176°
2026-05-06 12:17 42.55711 2.10665 38942 ft 437 kts 176°
2026-05-06 12:18 42.49690 2.11913 38935 ft 437 kts 176°
2026-05-06 12:18 42.43682 2.13155 38937 ft 438 kts 176°
2026-05-06 12:19 42.37654 2.14399 38919 ft 437 kts 176°
2026-05-06 12:19 42.31656 2.15635 38941 ft 436 kts 176°
2026-05-06 12:20 42.25648 2.16869 38934 ft 436 kts 176°
2026-05-06 12:20 42.20657 2.17893 38932 ft 437 kts 176°
2026-05-06 12:21 42.13677 2.19324 38930 ft 436 kts 177°
2026-05-06 12:21 42.07672 2.20551 38932 ft 436 kts 177°
2026-05-06 12:22 42.01674 2.21775 38936 ft 436 kts 177°
2026-05-06 12:22 41.96695 2.22788 38930 ft 435 kts 177°
2026-05-06 12:23 41.90723 2.24004 38928 ft 433 kts 177°
2026-05-06 12:23 41.84756 2.25214 38926 ft 433 kts 177°
2026-05-06 12:24 41.78782 2.26424 38932 ft 433 kts 177°
2026-05-06 12:24 41.72878 2.28135 38929 ft 436 kts 171°
2026-05-06 12:25 41.67022 2.30204 38932 ft 432 kts 171°
2026-05-06 12:25 41.61201 2.32237 38937 ft 433 kts 171°
2026-05-06 12:26 41.55410 2.34251 38941 ft 432 kts 171°
2026-05-06 12:26 41.49593 2.36271 38940 ft 431 kts 172°
2026-05-06 12:27 41.43795 2.38277 38949 ft 431 kts 172°
2026-05-06 12:27 41.40905 2.39278 38802 ft 428 kts 172°
2026-05-06 12:27 41.38027 2.40274 38358 ft 426 kts 172°
2026-05-06 12:28 41.35151 2.41267 37788 ft 425 kts 172°
2026-05-06 12:28 41.32284 2.42256 37130 ft 426 kts 172°
2026-05-06 12:28 41.29444 2.43234 36409 ft 426 kts 173°
2026-05-06 12:28 41.26540 2.44234 35716 ft 426 kts 173°
2026-05-06 12:29 41.23706 2.45209 35052 ft 426 kts 173°
2026-05-06 12:29 41.20834 2.46196 34387 ft 426 kts 173°
2026-05-06 12:29 41.17955 2.47185 33682 ft 427 kts 173°
2026-05-06 12:29 41.15079 2.48172 32876 ft 427 kts 173°
2026-05-06 12:30 41.12193 2.49160 32052 ft 429 kts 173°
2026-05-06 12:30 41.09299 2.50150 31223 ft 430 kts 173°
2026-05-06 12:30 41.06392 2.51144 30416 ft 432 kts 173°
2026-05-06 12:30 41.03487 2.52138 29700 ft 430 kts 173°
2026-05-06 12:31 41.00603 2.53126 29053 ft 425 kts 173°
2026-05-06 12:31 40.97754 2.54102 28409 ft 421 kts 173°
2026-05-06 12:31 40.94928 2.55066 27769 ft 417 kts 173°
2026-05-06 12:31 40.92132 2.56019 27146 ft 413 kts 173°
2026-05-06 12:32 40.89358 2.56962 26532 ft 410 kts 173°
2026-05-06 12:32 40.86612 2.57894 25868 ft 407 kts 173°
2026-05-06 12:32 40.83876 2.58821 25278 ft 404 kts 173°
2026-05-06 12:32 40.81168 2.59739 24757 ft 399 kts 172°
2026-05-06 12:33 40.78491 2.60646 24280 ft 397 kts 172°
2026-05-06 12:33 40.75809 2.61552 23806 ft 396 kts 172°
2026-05-06 12:33 40.73175 2.62442 23326 ft 394 kts 172°
2026-05-06 12:33 40.70534 2.63335 22780 ft 390 kts 172°
2026-05-06 12:34 40.67906 2.64224 22241 ft 387 kts 172°
2026-05-06 12:34 40.65306 2.65102 21715 ft 384 kts 172°
2026-05-06 12:34 40.62727 2.65972 21199 ft 381 kts 172°
2026-05-06 12:34 40.60165 2.66835 20690 ft 379 kts 172°
2026-05-06 12:35 40.57616 2.67693 20184 ft 376 kts 172°
2026-05-06 12:35 40.55090 2.68542 19694 ft 374 kts 172°
2026-05-06 12:35 40.52576 2.69387 19210 ft 371 kts 172°
2026-05-06 12:35 40.50107 2.70403 18755 ft 371 kts 164°
2026-05-06 12:36 40.47825 2.71813 18597 ft 363 kts 157°
2026-05-06 12:36 40.45654 2.73416 18432 ft 344 kts 158°
2026-05-06 12:36 40.43639 2.74893 18220 ft 329 kts 158°
2026-05-06 12:36 40.41652 2.76332 17685 ft 324 kts 158°
2026-05-06 12:37 40.39679 2.77751 17055 ft 322 kts 157°
2026-05-06 12:37 40.37718 2.79160 16463 ft 320 kts 157°
2026-05-06 12:37 40.35770 2.80563 15887 ft 318 kts 157°
2026-05-06 12:37 40.33831 2.81962 15320 ft 317 kts 156°
2026-05-06 12:38 40.31898 2.83355 14897 ft 316 kts 156°
2026-05-06 12:38 40.29976 2.84742 14499 ft 314 kts 156°
2026-05-06 12:38 40.28057 2.86125 14124 ft 312 kts 156°
2026-05-06 12:38 40.26198 2.87471 14042 ft 299 kts 156°
2026-05-06 12:39 40.24432 2.88749 13913 ft 288 kts 156°
2026-05-06 12:39 40.22677 2.90014 13530 ft 287 kts 156°
2026-05-06 12:39 40.20932 2.91267 13172 ft 284 kts 156°
2026-05-06 12:39 40.19208 2.92507 12758 ft 283 kts 156°
2026-05-06 12:40 40.17423 2.93780 12493 ft 304 kts 156°
2026-05-06 12:40 40.15552 2.95117 12242 ft 305 kts 155°
2026-05-06 12:40 40.13743 2.96543 11934 ft 302 kts 152°
2026-05-06 12:40 40.11972 2.98010 11554 ft 300 kts 152°
2026-05-06 12:41 40.10209 2.99470 11153 ft 299 kts 152°
2026-05-06 12:41 40.08458 3.00915 10765 ft 297 kts 152°
2026-05-06 12:41 40.06714 3.02350 10382 ft 295 kts 152°
2026-05-06 12:41 40.04934 3.03632 10002 ft 290 kts 160°
2026-05-06 12:42 40.03078 3.04645 9588 ft 288 kts 162°
2026-05-06 12:42 40.01226 3.05624 9186 ft 286 kts 162°
2026-05-06 12:42 39.99388 3.06577 8787 ft 283 kts 163°
2026-05-06 12:42 39.97482 3.07056 8365 ft 278 kts 179°
2026-05-06 12:43 39.95547 3.07175 7995 ft 280 kts 180°
2026-05-06 12:43 39.93617 3.07287 7728 ft 275 kts 180°
2026-05-06 12:43 39.91735 3.07400 7462 ft 265 kts 179°
2026-05-06 12:43 39.89934 3.07513 7210 ft 253 kts 179°
2026-05-06 12:44 39.88215 3.07624 6930 ft 243 kts 179°
2026-05-06 12:44 39.86532 3.07732 6658 ft 240 kts 179°
2026-05-06 12:44 39.84847 3.07839 6395 ft 244 kts 179°
2026-05-06 12:44 39.83152 3.07947 6141 ft 241 kts 179°
2026-05-06 12:45 39.81517 3.08053 5910 ft 236 kts 179°
2026-05-06 12:45 39.79879 3.08158 5615 ft 234 kts 179°
2026-05-06 12:45 39.76671 3.08366 5033 ft 226 kts 179°
2026-05-06 12:46 39.75106 3.08466 4761 ft 224 kts 178°
2026-05-06 12:46 39.73532 3.08565 4510 ft 227 kts 178°
2026-05-06 12:46 39.71964 3.08548 4261 ft 223 kts 193°
2026-05-06 12:46 39.70598 3.07631 4064 ft 224 kts 223°
2026-05-06 12:47 39.69602 3.06085 3866 ft 222 kts 237°
2026-05-06 12:47 39.68813 3.04396 3646 ft 216 kts 240°
2026-05-06 12:47 39.68053 3.02750 3454 ft 210 kts 238°
2026-05-06 12:47 39.67283 3.01113 3258 ft 213 kts 239°
2026-05-06 12:48 39.66525 2.99498 3054 ft 211 kts 238°
2026-05-06 12:48 39.65769 2.97890 2896 ft 204 kts 238°
2026-05-06 12:48 39.65050 2.96362 2855 ft 198 kts 238°
2026-05-06 12:48 39.64324 2.94818 2769 ft 201 kts 238°
2026-05-06 12:49 39.63598 2.93274 2681 ft 199 kts 238°
2026-05-06 12:49 39.62877 2.91741 2580 ft 195 kts 238°
2026-05-06 12:49 39.62196 2.90291 2462 ft 183 kts 238°
2026-05-06 12:49 39.61549 2.88919 2233 ft 173 kts 237°
2026-05-06 12:50 39.60949 2.87643 2031 ft 164 kts 238°
2026-05-06 12:50 39.60340 2.86352 1828 ft 163 kts 238°
2026-05-06 12:50 39.59789 2.85179 1624 ft 146 kts 237°
2026-05-06 12:50 39.59284 2.84105 1428 ft 137 kts 237°
2026-05-06 12:51 39.58783 2.83045 1249 ft 137 kts 237°
2026-05-06 12:51 39.58296 2.82009 1079 ft 132 kts 237°
2026-05-06 12:51 39.57884 2.81136 939 ft 133 kts 237°
2026-05-06 12:51 39.57405 2.80119 764 ft 133 kts 236°
2026-05-06 12:52 39.56915 2.79077 575 ft 138 kts 237°
2026-05-06 12:52 39.56427 2.78012 365 ft 136 kts 238°
2026-05-06 12:52 39.55911 2.76937 214 ft 142 kts 236°
2026-05-06 12:52 39.55396 2.75843 47 ft 140 kts 236°
2026-05-06 12:53 39.54942 2.74889 37 ft 99 kts 238°
2026-05-06 12:53 39.54696 2.74373 37 ft 36 kts 239°
2026-05-06 12:53 39.54585 2.74132 36 ft 29 kts 246°
2026-05-06 12:53 39.54552 2.73918 38 ft 14 kts 268°
2026-05-06 12:54 39.54552 2.73801 38 ft 9 kts 270°
2026-05-06 12:54 39.54561 2.73744 38 ft 6 kts 308°
2026-05-06 12:54 39.54602 2.73749 36 ft 8 kts 40°
2026-05-06 12:54 39.54641 2.73818 38 ft 11 kts 58°
2026-05-06 12:55 39.54686 2.73911 38 ft 13 kts 57°
2026-05-06 12:55 39.54739 2.74023 38 ft 16 kts 59°
2026-05-06 12:55 39.54784 2.74112 38 ft 13 kts 43°
2026-05-06 12:55 39.54854 2.74103 36 ft 11 kts 330°
2026-05-06 12:56 39.54932 2.74044 37 ft 14 kts 328°
2026-05-06 12:56 39.55004 2.73987 37 ft 13 kts 328°
2026-05-06 12:56 39.55089 2.73920 38 ft 16 kts 329°
2026-05-06 12:56 39.55184 2.73847 38 ft 15 kts 329°
2026-05-06 12:57 39.55274 2.73774 38 ft 16 kts 328°
2026-05-06 12:57 39.55366 2.73701 38 ft 13 kts 329°
2026-05-06 12:57 39.55434 2.73648 38 ft 6 kts 329°
2026-05-06 12:57 39.55478 2.73613 38 ft 7 kts 328°
2026-05-06 12:58 39.55492 2.73553 38 ft 9 kts 257°
2026-05-06 12:58 39.55464 2.73487 38 ft 6 kts 239°
2026-05-06 12:58 39.55445 2.73445 38 ft 5 kts 238°
2026-05-06 12:58 39.55428 2.73411 37 ft 4 kts 238°
2026-05-06 12:59 39.55415 2.73383 38 ft 4 kts 238°
2026-05-06 12:59 39.55404 2.73360 37 ft 3 kts 236°
2026-05-06 12:59 39.55381 2.73333 38 ft 5 kts 212°
2026-05-06 12:59 39.55354 2.73321 38 ft 4 kts 196°
2026-05-06 13:00 39.55328 2.73311 38 ft 4 kts 196°
2026-05-06 13:00 39.55302 2.73301 38 ft 3 kts 196°
2026-05-06 13:00 39.55291 2.73297 38 ft 1 kts 196°
2026-05-06 13:00 39.55289 2.73296 38 ft 1 kts 196°
2026-05-06 13:01 39.55287 2.73296 38 ft 0 kts 196°